カタログに戻る

STARLINK-6146

運用中通信VLEO
NORAD 57124·PAYLOAD·🇺🇸 United States

打ち上げ Jun 23, 2023 から Cape Canaveral Space Force Station

Loading…

次のパス (今後24時間)

TLE

最新Source: CelesTrak SupGP

元期: Sep 15, 2026, 02:02 UTC

1 57124C 23090Z   26258.08520833  .00016214  00000+0  58742-3 0  2585
2 57124  42.9999 291.9122 0001438 264.6495 266.5104 15.27561113    18

AllMySatでSTARLINK-6146をリアルタイム追跡

Download on the App Store